Location: Grand Lay
(47.3253°N, 0.9468°E)
Time: 20:46:20
(UTC+00:00)

Cosmos 371 Rocket - Pass Details

Date: 18 January 2026
Orbit: 676 x 688 km, 74.0° (Epoch: 17 February)

Event Time Altitude Azimuth Distance (km) Brightness Sun altitude
Rises 06:39:05 0° 199° (SSW) 3,040 6.6 -9.7°
Reaches altitude 10° 06:41:23 10° 198° (SSW) 2,127 5.8 -9.3°
Maximum altitude 06:46:11 85° 110° (ESE) 694 3.4 -8.5°
Drops below altitude 10° 06:51:00 10° 23° (NNE) 2,135 5.8 -7.8°
Sets 06:53:18 0° 23° (NNE) 3,053 6.6 -7.4°
